| time (UTC) | temp F | wind direction | speed knots | gust knots | rain 1hr in | rain 24hr in | rain mn in | humidity % | barometer mb |
| 20260506051006 | 66 | 20 | 4.3 | 6.1 | 0.00 | 0.00 | 0.00 | 78 | 1020.8 |
| 20260506045006 | 67 | 34 | 0.9 | 5.2 | 0.00 | 0.00 | 0.00 | 78 | 1020.7 |
| 20260506044006 | 67 | 39 | 1.7 | 5.2 | 0.00 | 0.00 | 0.00 | 77 | 1020.6 |
| 20260506043006 | 68 | 34 | 2.6 | 6.1 | 0.00 | 0.00 | 0.00 | 73 | 1020.6 |
| 20260506042006 | 69 | 29 | 2.6 | 6.1 | 0.00 | 0.00 | 0.00 | 73 | 1020.8 |
| 20260506041006 | 69 | 36 | 1.7 | 8.7 | 0.00 | 0.00 | 0.00 | 72 | 1020.7 |
| 20260506040006 | 69 | 39 | 1.7 | 6.1 | 0.00 | 0.00 | 0.00 | 74 | 1021.0 |
| 20260506035006 | 69 | 29 | 1.7 | 6.1 | 0.00 | 0.00 | 0.00 | 75 | 1020.9 |
| 20260506034006 | 69 | 31 | 1.7 | 6.1 | 0.00 | 0.00 | 0.00 | 74 | 1020.8 |
| 20260506032006 | 71 | 22 | 3.5 | 10.4 | 0.00 | 0.00 | 0.00 | 66 | 1020.7 |
| 20260506031005 | 71 | 32 | 4.3 | 12.2 | 0.00 | 0.00 | 0.00 | 66 | 1020.9 |
| 20260506030006 | 70 | 34 | 5.2 | 13.9 | 0.00 | 0.00 | 0.00 | 67 | 1020.9 |
| 20260506025006 | 71 | 27 | 4.3 | 12.2 | 0.00 | 0.00 | 0.00 | 67 | 1020.9 |
| 20260506024005 | 69 | 21 | 4.3 | 12.2 | 0.00 | 0.00 | 0.00 | 69 | 1021.3 |
| 20260506023006 | 69 | 29 | 1.7 | 13.9 | 0.00 | 0.00 | 0.00 | 73 | 1021.2 |
| 20260506021006 | 70 | 32 | 3.5 | 8.7 | 0.00 | 0.00 | 0.00 | 74 | 1021.0 |
| 20260506020009 | 69 | 36 | 2.6 | 8.7 | 0.00 | 0.00 | 0.00 | 75 | 1021.0 |
| 20260506015005 | 69 | 31 | 2.6 | 10.4 | 0.00 | 0.00 | 0.00 | 74 | 1021.1 |
| 20260506014006 | 69 | 37 | 3.5 | 8.7 | 0.00 | 0.00 | 0.00 | 74 | 1020.8 |
| 20260506013007 | 69 | 35 | 0.9 | 8.7 | 0.00 | 0.00 | 0.00 | 76 | 1020.5 |
| 20260506012006 | 69 | 31 | 4.3 | 8.7 | 0.00 | 0.00 | 0.00 | 74 | 1020.4 |
| 20260506011006 | 70 | 29 | 2.6 | 10.4 | 0.00 | 0.00 | 0.00 | 75 | 1020.7 |
| 20260506010006 | 71 | 45 | 4.3 | 8.7 | 0.00 | 0.00 | 0.00 | 72 | 1020.9 |
| 20260506005006 | 68 | 34 | 3.5 | 12.2 | 0.00 | 0.00 | 0.00 | 76 | 1021.4 |
| 20260506004005 | 69 | 27 | 4.3 | 12.2 | 0.00 | 0.00 | 0.00 | 74 | 1021.5 |
| 20260506003006 | 69 | 24 | 2.6 | 10.4 | 0.00 | 0.00 | 0.00 | 75 | 1021.9 |
| 20260506002006 | 70 | 40 | 1.7 | 6.1 | 0.00 | 0.00 | 0.00 | 73 | 1022.0 |
| 20260506001005 | 69 | 42 | 2.6 | 6.1 | 0.00 | 0.00 | 0.00 | 73 | 1022.4 |
| 20260506000006 | 69 | 17 | 0.9 | 8.7 | 0.00 | 0.00 | 0.00 | 74 | 1022.4 |
| 20260505235006 | 70 | 24 | 2.6 | 8.7 | 0.00 | 0.00 | 0.00 | 71 | 1023.0 |
| 20260505233008 | 70 | 30 | 2.6 | 6.1 | 0.00 | 0.00 | 0.00 | 74 | 1023.6 |
| 20260505231006 | 69 | 32 | 2.6 | 7.8 | 0.00 | 0.00 | 0.00 | 75 | 1024.4 |
| 20260505230007 | 69 | 36 | 4.3 | 7.8 | 0.00 | 0.00 | 0.00 | 74 | 1024.7 |
| 20260505224006 | 68 | 24 | 2.6 | 6.1 | 0.00 | 0.00 | 0.00 | 77 | 1025.6 |
| 20260505223007 | 66 | 30 | 0.9 | 6.1 | 0.00 | 0.00 | 0.00 | 80 | 1025.7 |
| 20260505222008 | 65 | 3 | 0.9 | 5.2 | 0.00 | 0.00 | 0.00 | 82 | 1025.8 |
| 20260505221006 | 65 | 25 | 0.9 | 5.2 | 0.00 | 0.00 | 0.00 | 82 | 1026.0 |
| 20260505220006 | 65 | 39 | 0.9 | 5.2 | 0.00 | 0.00 | 0.00 | 82 | 1026.5 |
| 20260505215006 | 64 | 0 | 0.0 | 2.6 | 0.00 | 0.00 | 0.00 | 83 | 1026.9 |
| 20260505214006 | 64 | 0 | 0.0 | 5.2 | 0.00 | 0.00 | 0.00 | 84 | 1027.8 |
| 20260505213007 | 61 | 33 | 1.7 | 5.2 | 0.00 | 0.00 | 0.00 | 87 | 1028.5 |
| 20260505212005 | 58 | 45 | 0.9 | 2.6 | 0.00 | 0.00 | 0.00 | 92 | 1029.1 |
| 20260505210006 | 56 | 35 | 0.9 | 5.2 | 0.00 | 0.00 | 0.00 | 92 | 1029.9 |
| 20260505205005 | 56 | 0 | 0.0 | 5.2 | 0.00 | 0.00 | 0.00 | 93 | 1030.2 |
| 20260505204006 | 55 | 1 | 0.9 | 5.2 | 0.00 | 0.00 | 0.00 | 93 | 1030.5 |
| 20260505202006 | 53 | 45 | 0.9 | 2.6 | 0.00 | 0.00 | 0.00 | 96 | 1030.9 |
| 20260505201005 | 52 | 0 | 0.0 | 1.7 | 0.00 | 0.00 | 0.00 | 97 | 1031.0 |
| 20260505200006 | 52 | 0 | 0.0 | 2.6 | 0.00 | 0.00 | 0.00 | 96 | 1031.1 |
| 20260505195006 | 52 | 0 | 0.0 | 1.7 | 0.00 | 0.00 | 0.00 | 96 | 1031.1 |
| 20260505194006 | 52 | 38 | 0.9 | 2.6 | 0.00 | 0.00 | 0.00 | 96 | 1031.2 |
| 20260505193006 | 51 | 0 | 0.0 | 2.6 | 0.00 | 0.00 | 0.00 | 96 | 1030.9 |
| 20260505192006 | 51 | 38 | 0.9 | 2.6 | 0.00 | 0.00 | 0.00 | 97 | 1030.9 |
| 20260505191006 | 51 | 38 | 0.9 | 2.6 | 0.00 | 0.00 | 0.00 | 97 | 1030.9 |
| 20260505190006 | 51 | 0 | 0.0 | 0.0 | 0.00 | 0.00 | 0.00 | 97 | 1030.8 |
| 20260505185005 | 51 | 0 | 0.0 | 1.7 | 0.00 | 0.00 | 0.00 | 97 | 1030.8 |
| 20260505184005 | 51 | 0 | 0.0 | 2.6 | 0.00 | 0.00 | 0.00 | 97 | 1031.1 |
| 20260505183006 | 51 | 0 | 0.0 | 5.2 | 0.00 | 0.00 | 0.00 | 98 | 1030.7 |
| 20260505182007 | 50 | 45 | 1.7 | 2.6 | 0.00 | 0.00 | 0.00 | 98 | 1030.7 |
| 20260505181007 | 50 | 38 | 0.9 | 2.6 | 0.00 | 0.00 | 0.00 | 98 | 1030.7 |
| 20260505175006 | 50 | 0 | 0.0 | 2.6 | 0.00 | 0.00 | 0.00 | 98 | 1030.5 |
| 20260505174005 | 50 | 45 | 1.7 | 2.6 | 0.00 | 0.00 | 0.00 | 98 | 1030.5 |
| 20260505172006 | 50 | 0 | 0.0 | 2.6 | 0.00 | 0.00 | 0.00 | 98 | 1030.4 |
| 20260505170007 | 49 | 0 | 0.0 | 2.6 | 0.00 | 0.00 | 0.00 | 98 | 1030.6 |
| 20260505165006 | 49 | 45 | 0.9 | 2.6 | 0.00 | 0.00 | 0.00 | 98 | 1030.4 |
| 20260505164006 | 49 | 0 | 0.0 | 2.6 | 0.00 | 0.00 | 0.00 | 98 | 1030.3 |
| 20260505163009 | 49 | 0 | 0.0 | 2.6 | 0.00 | 0.00 | 0.00 | 98 | 1030.5 |
| 20260505162006 | 49 | 0 | 0.0 | 2.6 | 0.00 | 0.00 | 0.00 | 98 | 1030.6 |
| 20260505161005 | 49 | 0 | 0.0 | 1.7 | 0.00 | 0.00 | 0.00 | 98 | 1031.0 |
| 20260505153007 | 48 | 45 | 1.7 | 2.6 | 0.00 | 0.00 | 0.00 | 98 | 1030.8 |
| 20260505152006 | 48 | 0 | 0.0 | 0.0 | 0.00 | 0.00 | 0.00 | 98 | 1030.1 |
| 20260505151005 | 48 | 0 | 0.0 | 1.7 | 0.00 | 0.00 | 0.00 | 98 | 1030.2 |
| 20260505125006 | 48 | 355 | 0.9 | 2.6 | 0.00 | 0.00 | 0.00 | 99 | 1029.0 |
| 20260505124006 | 48 | 26 | 0.9 | 5.2 | 0.00 | 0.00 | 0.00 | 99 | 1029.0 |
| 20260505123006 | 48 | 45 | 0.9 | 2.6 | 0.00 | 0.00 | 0.00 | 99 | 1028.8 |
| 20260505122005 | 48 | 0 | 0.0 | 2.6 | 0.00 | 0.00 | 0.00 | 99 | 1028.7 |
| 20260505121005 | 48 | 0 | 0.0 | 2.6 | 0.00 | 0.00 | 0.00 | 99 | 1028.4 |
| 20260505120012 | 48 | 0 | 0.0 | 1.7 | 0.00 | 0.00 | 0.00 | 99 | 1028.5 |
| 20260505114006 | 48 | 0 | 0.0 | 0.0 | 0.00 | 0.00 | 0.00 | 99 | 1028.0 |
| 20260505113006 | 48 | 0 | 0.0 | 2.6 | 0.00 | 0.00 | 0.00 | 99 | 1027.8 |
| 20260505112006 | 48 | 68 | 0.9 | 2.6 | 0.00 | 0.00 | 0.00 | 99 | 1027.6 |
| 20260505111005 | 48 | 0 | 0.0 | 0.0 | 0.00 | 0.00 | 0.00 | 99 | 1027.7 |
| 20260505102006 | 49 | 0 | 0.0 | 1.7 | 0.00 | 0.00 | 0.00 | 99 | 1027.3 |
| 20260505101006 | 49 | 0 | 0.0 | 1.7 | 0.00 | 0.00 | 0.00 | 99 | 1027.4 |
| 20260505100007 | 49 | 0 | 0.0 | 1.7 | 0.00 | 0.00 | 0.00 | 99 | 1027.2 |
| 20260505095006 | 49 | 0 | 0.0 | 1.7 | 0.00 | 0.00 | 0.00 | 99 | 1027.0 |
| 20260505094005 | 49 | 0 | 0.0 | 2.6 | 0.00 | 0.00 | 0.00 | 99 | 1027.2 |
| 20260505093006 | 50 | 90 | 0.9 | 1.7 | 0.00 | 0.00 | 0.00 | 99 | 1027.0 |
| 20260505092007 | 50 | 90 | 0.9 | 1.7 | 0.00 | 0.00 | 0.00 | 99 | 1027.0 |
| 20260505091005 | 50 | 0 | 0.0 | 2.6 | 0.00 | 0.00 | 0.00 | 98 | 1026.8 |
| 20260505090006 | 50 | 0 | 0.0 | 0.0 | 0.00 | 0.00 | 0.00 | 98 | 1026.6 |
| 20260505085006 | 50 | 0 | 0.0 | 0.0 | 0.00 | 0.00 | 0.00 | 98 | 1026.5 |
| 20260505084005 | 50 | 0 | 0.0 | 0.0 | 0.00 | 0.00 | 0.00 | 98 | 1026.6 |
| 20260505083006 | 50 | 0 | 0.0 | 0.0 | 0.00 | 0.00 | 0.00 | 98 | 1026.7 |
| 20260505082006 | 50 | 0 | 0.0 | 0.0 | 0.00 | 0.00 | 0.00 | 98 | 1026.8 |
| 20260505081005 | 51 | 0 | 0.0 | 0.0 | 0.00 | 0.00 | 0.00 | 98 | 1026.5 |
| 20260505080006 | 50 | 0 | 0.0 | 0.0 | 0.00 | 0.00 | 0.00 | 98 | 1026.6 |
| 20260505075007 | 50 | 0 | 0.0 | 0.0 | 0.00 | 0.00 | 0.00 | 97 | 1026.2 |
| 20260505074005 | 50 | 0 | 0.0 | 0.0 | 0.00 | 0.00 | 0.00 | 97 | 1026.1 |
| 20260505073006 | 51 | 0 | 0.0 | 0.0 | 0.00 | 0.00 | 0.00 | 97 | 1026.0 |
| 20260505072007 | 51 | 0 | 0.0 | 0.0 | 0.00 | 0.00 | 0.00 | 96 | 1026.1 |
| 20260505071005 | 51 | 0 | 0.0 | 0.0 | 0.00 | 0.00 | 0.00 | 96 | 1025.9 |
| 20260505070008 | 52 | 0 | 0.0 | 0.0 | 0.00 | 0.00 | 0.00 | 96 | 1026.1 |
| 20260505065006 | 53 | 0 | 0.0 | 0.0 | 0.00 | 0.00 | 0.00 | 95 | 1025.8 |
| 20260505064006 | 53 | 0 | 0.0 | 0.0 | 0.00 | 0.00 | 0.00 | 95 | 1026.0 |
| 20260505063006 | 54 | 0 | 0.0 | 0.0 | 0.00 | 0.00 | 0.00 | 94 | 1025.6 |
| 20260505062006 | 54 | 0 | 0.0 | 1.7 | 0.00 | 0.00 | 0.00 | 94 | 1025.1 |
| 20260505061005 | 54 | 0 | 0.0 | 1.7 | 0.00 | 0.00 | 0.00 | 94 | 1025.2 |
| 20260505060006 | 54 | 0 | 0.0 | 1.7 | 0.00 | 0.00 | 0.00 | 94 | 1025.1 |
| 20260505055005 | 54 | 0 | 0.0 | 1.7 | 0.00 | 0.00 | 0.00 | 94 | 1025.0 |
| 20260505054010 | 55 | 0 | 0.0 | 0.0 | 0.00 | 0.00 | 0.00 | 93 | 1025.2 |